[[{"header":{"parameterUnit":"m.s-1","parameterCategory":1,"la1":30.2991,"la2":30.254,"lo1":-89.0895,"lo2":-89.0444,"dx":0.0017,"dy":0.0017,"nx":28,"ny":28,"refTime":"2022-11-15T09:00:00:Z","depth":0,"parameterNumber":2,"parameterNumberName":"U-component_of_WINDS"},"data":[0,0,0,0,0,0,0,0,0,0,0,0,0,0,0,0,0,0,0,0,0,0,0,0,0,0,0,0,0,0,0,0,0,0,0,0,0,0,0,0,0,0,0,0,0,0,0,0,0,0,0,0,0,0,0,0,0,0,-0.3344,-0.3344,0,-0.3393,-0.3394,-0.3394,-0.3351,-0.3349,-0.3347,-0.3346,-0.3399,-0.3402,-0.3405,0,0,0,0,0,0,0,0,0,0,0,0,0,-0.3215,-0.3218,-0.3344,-0.3344,-0.3345,-0.3393,-0.3394,-0.3394,-0.3351,-0.3349,-0.3347,-0.3345,-0.3398,-0.3402,-0.3406,0,0,0,0,0,0,0,0,0,0,0,0,0,-0.3268,-0.3218,-0.3344,-0.3329,-0.3328,-0.3393,-0.3394,-0.3395,-0.3352,-0.3349,-0.3346,-0.3344,-0.3397,-0.3402,-0.3406,-0.3489,0,0,-0.342,-0.3423,0,0,0,0,0,0,0,0,-0.3265,-0.3273,-0.3331,-0.333,-0.3329,-0.3363,-0.3368,-0.3426,-0.3352,-0.3343,-0.3346,-0.3342,-0.339,-0.3395,-0.341,-0.3491,-0.3493,-0.3421,-0.3424,-0.3426,-0.3427,0,0,0,0,0,0,0,-0.3262,-0.3271,-0.3363,-0.3332,-0.3331,-0.3321,-0.3326,-0.3379,-0.3381,-0.3344,-0.334,-0.3347,-0.3389,-0.3406,-0.3411,-0.3494,-0.3421,-0.3425,-0.3428,-0.343,-0.3646,-0.3649,0,0,0,0,0,0,-0.3259,-0.3268,-0.3362,-0.3365,-0.329,-0.3326,-0.3331,-0.3355,-0.338,-0.3381,-0.3349,-0.3345,-0.3399,-0.3406,-0.3413,-0.3512,-0.3426,-0.343,-0.3433,-0.3644,-0.3647,-0.365,0,0,0,0,0,0,-0.3257,-0.3268,-0.336,-0.3316,-0.3327,-0.3331,-0.3358,-0.3357,-0.3374,-0.3384,-0.3385,-0.3366,-0.3397,-0.3406,-0.347,-0.3513,-0.3432,-0.3436,-0.364,-0.3645,-0.3649,-0.3711,0,0,0,0,0,0,-0.3253,-0.3267,-0.3298,-0.3317,-0.3329,-0.3416,-0.3361,-0.336,-0.3382,-0.3377,-0.34,-0.3401,-0.3396,-0.3463,-0.3475,-0.3518,-0.344,-0.3636,-0.3642,-0.3647,-0.3705,-0.3717,-0.3727,0,0,0,0,0,-0.3249,-0.3314,-0.33,-0.3311,-0.3367,-0.3418,-0.3426,-0.3417,-0.3385,-0.3417,-0.3423,-0.3401,-0.3506,-0.347,-0.3483,-0.3528,-0.3634,-0.364,-0.3647,-0.37,-0.3714,-0.3727,0,0,0,0,0,0,-0.3302,-0.3316,-0.3301,-0.3374,-0.3395,-0.3411,-0.3451,-0.3432,-0.3464,-0.3458,-0.3446,-0.3452,-0.352,-0.353,-0.349,-0.361,-0.3565,-0.3574,-0.3601,-0.3615,-0.3626,-0.3623,-0.3444,0,0,0,0,0,-0.3322,-0.3361,-0.3372,-0.3435,-0.3447,-0.3447,-0.3469,-0.346,-0.3482,-0.3491,-0.3502,-0.3525,-0.3564,-0.3589,-0.3625,-0.3705,-0.3711,-0.3743,-0.3754,-0.3762,-0.3772,-0.3816,-0.3831,-0.3672,-0.3672,-0.3672,0,0,-0.3364,-0.3377,-0.3402,-0.3446,-0.3462,-0.3504,-0.3455,-0.3501,-0.3533,-0.3498,-0.356,-0.3568,-0.3593,-0.3666,-0.3699,-0.3677,-0.3816,-0.3771,-0.3778,-0.3783,-0.3825,-0.384,-0.3853,-0.3677,-0.3676,-0.3675,0,0,-0.3463,-0.3476,-0.3531,-0.3547,-0.357,-0.357,-0.3583,-0.3602,-0.3606,-0.3667,-0.3642,-0.368,-0.3746,-0.3765,-0.3783,-0.3888,-0.3869,-0.39,-0.3959,-0.4002,-0.4015,-0.4026,-0.4065,-0.408,-0.3909,-0.3909,-0.3909,0,-0.3513,-0.3575,-0.3562,-0.361,-0.3631,-0.36,-0.3656,-0.3673,-0.3707,-0.3723,-0.3697,-0.3779,-0.3794,-0.3871,-0.3897,-0.3912,-0.3928,-0.3899,-0.4014,-0.4025,-0.4035,-0.4073,-0.4087,-0.3913,-0.3912,-0.3912,-0.3912,0,-0.3636,-0.3679,-0.3721,-0.3754,-0.3779,-0.3831,-0.3827,-0.3854,-0.3842,-0.3845,-0.3908,-0.3924,-0.3963,-0.398,-0.397,-0.4056,-0.4042,-0.4015,-0.397,-0.4054,-0.4089,-0.4104,-0.3918,-0.3917,-0.3916,-0.3915,0,0,-0.3772,-0.3796,-0.3812,-0.3827,-0.3851,-0.3884,-0.3935,-0.3972,-0.3996,-0.402,-0.4064,-0.412,-0.4095,-0.4116,-0.4107,-0.4145,-0.423,-0.4114,-0.4114,-0.4137,-0.4328,-0.435,-0.4367,-0.4216,-0.4218,-0.422,-0.4327,0,-0.3874,-0.3961,-0.3951,-0.4035,-0.4076,-0.4046,-0.4091,-0.4111,-0.4114,-0.4149,-0.4153,-0.4194,-0.4157,-0.417,-0.4205,-0.4212,-0.4268,-0.4204,-0.4258,-0.426,-0.4255,-0.4385,-0.4408,-0.4507,-0.434,-0.4342,-0.4344,0,-0.4004,-0.4033,-0.4121,-0.4138,-0.4155,-0.4195,-0.4228,-0.4262,-0.4284,-0.4283,-0.4306,-0.4291,-0.4343,-0.4295,-0.4367,-0.4324,-0.4345,-0.4351,-0.4355,-0.4362,-0.4309,-0.4397,-0.4539,-0.4555,-0.4365,-0.4363,-0.4362,0,-0.4098,-0.4158,-0.4219,-0.4232,-0.4253,-0.4282,-0.4293,-0.4311,-0.4334,-0.4363,-0.4379,-0.4413,-0.4433,-0.4461,-0.4456,-0.4421,-0.4531,-0.4482,-0.4534,-0.4534,-0.456,-0.4559,-0.471,-0.457,-0.457,-0.4569,-0.4569,0,-0.4214,-0.427,-0.4261,-0.4299,-0.436,-0.4347,-0.4409,-0.4416,-0.4433,-0.4472,-0.4448,-0.4486,-0.4476,-0.4513,-0.4509,-0.4571,-0.4579,-0.4582,-0.4581,-0.4586,-0.4586,-0.4601,-0.4595,-0.4573,-0.4572,-0.4572,-0.4571,0,-0.433,-0.4326,-0.439,-0.4404,-0.4409,-0.4455,-0.4467,-0.4503,-0.4504,-0.4554,-0.4565,-0.4567,-0.4609,-0.4606,-0.4654,-0.4652,-0.4729,-0.4718,-0.4722,-0.472,-0.4773,-0.4769,-0.4941,-0.4964,-0.4807,-0.4808,-0.4809,0,-0.4405,-0.4447,-0.4466,-0.449,-0.4502,-0.4541,-0.4564,-0.4553,-0.4578,-0.4606,-0.4639,-0.4679,-0.4711,-0.4781,-0.4787,-0.4824,-0.4816,-0.4873,-0.4821,-0.4825,-0.482,-0.4818,-0.4823,-0.4885,-0.4886,-0.4888,-0.4889,0,-0.4541,-0.4536,-0.457,-0.4604,-0.4632,-0.4657,-0.4681,-0.4702,-0.4693,-0.4723,-0.4766,-0.479,-0.4839,-0.488,-0.4915,-0.4927,-0.4908,-0.4905,-0.4919,-0.4926,-0.4927,-0.4929,-0.4752,-0.4902,-0.49,-0.4899,-0.4899,-0.4898,-0.464,-0.4677,-0.4696,-0.4734,-0.475,-0.4773,-0.4807,-0.4812,-0.4847,-0.4886,-0.4876,-0.4926,-0.4946,-0.4991,-0.5006,-0.5044,-0.5024,-0.5044,-0.505,-0.5056,-0.5063,-0.4918,-0.505,-0.505,-0.505,-0.5049,-0.5049,0,-0.4776,-0.4787,-0.4822,-0.4855,-0.4886,-0.4862,-0.4887,-0.4915,-0.4958,-0.4978,-0.501,-0.506,-0.5099,-0.5108,-0.5146,-0.5175,-0.5167,-0.5186,-0.5185,-0.5188,-0.5078,-0.5063,-0.5191,-0.5191,-0.5191,-0.5191,-0.5191,-0.5191,-0.4851,-0.4912,-0.491,-0.4979,-0.4989,-0.5036,-0.5052,-0.5073,-0.509,-0.5146,-0.5178,-0.5183,-0.5199,-0.5238,-0.5273,-0.5275,-0.5291,-0.5314,-0.5312,-0.521,-0.5196,-0.5182,-0.5168,-0.5317,-0.5317,-0.5419,-0.542,-0.5421]},{"header":{"parameterUnit":"m.s-1","parameterCategory":1,"la1":30.2991,"la2":30.254,"lo1":-89.0895,"lo2":-89.0444,"dx":0.0017,"dy":0.0017,"nx":28,"ny":28,"refTime":"2022-11-15T09:00:00:Z","depth":0,"parameterNumber":3,"parameterNumberName":"V-component_of_WINDS"},"data":[0,0,0,0,0,0,0,0,0,0,0,0,0,0,0,0,0,0,0,0,0,0,0,0,0,0,0,0,0,0,0,0,0,0,0,0,0,0,0,0,0,0,0,0,0,0,0,0,0,0,0,0,0,0,0,0,0,0,-6.1597,-6.1598,0,-6.1739,-6.1741,-6.1743,-6.168,-6.1676,-6.1673,-6.167,-6.1812,-6.1819,-6.1826,0,0,0,0,0,0,0,0,0,0,0,0,0,-6.1266,-6.1272,-6.1597,-6.1598,-6.16,-6.1739,-6.1741,-6.1743,-6.1681,-6.1676,-6.1672,-6.1668,-6.181,-6.1818,-6.1827,0,0,0,0,0,0,0,0,0,0,0,0,0,-6.1409,-6.1274,-6.1596,-6.1586,-6.1586,-6.1739,-6.1741,-6.1744,-6.1681,-6.1676,-6.1671,-6.1666,-6.1807,-6.1817,-6.1828,-6.1998,0,0,-6.186,-6.1865,0,0,0,0,0,0,0,0,-6.1401,-6.1421,-6.1586,-6.1587,-6.1588,-6.1687,-6.1677,-6.1829,-6.1683,-6.1645,-6.167,-6.1663,-6.1774,-6.1787,-6.1825,-6.2005,-6.2011,-6.1861,-6.1867,-6.1872,-6.1875,0,0,0,0,0,0,0,-6.1391,-6.1415,-6.1653,-6.1588,-6.1589,-6.1573,-6.1587,-6.1705,-6.1737,-6.1648,-6.1644,-6.1662,-6.1774,-6.1815,-6.1828,-6.2013,-6.1861,-6.187,-6.1877,-6.1881,-6.2337,-6.2343,0,0,0,0,0,0,-6.1382,-6.1407,-6.1648,-6.1657,-6.148,-6.1583,-6.1599,-6.166,-6.1736,-6.1742,-6.1666,-6.1658,-6.18,-6.1816,-6.1833,-6.2037,-6.1872,-6.1882,-6.1888,-6.2331,-6.2338,-6.2345,0,0,0,0,0,0,-6.1375,-6.1404,-6.1643,-6.1531,-6.156,-6.1594,-6.1663,-6.1666,-6.1707,-6.175,-6.1755,-6.1703,-6.1796,-6.1818,-6.1957,-6.2041,-6.1887,-6.1896,-6.2325,-6.2334,-6.2342,-6.2446,0,0,0,0,0,0,-6.1366,-6.1402,-6.1468,-6.1533,-6.1566,-6.1766,-6.1668,-6.1672,-6.1726,-6.1717,-6.1785,-6.1792,-6.1794,-6.1942,-6.1968,-6.2053,-6.1904,-6.2317,-6.2329,-6.2339,-6.2435,-6.2457,-6.2476,0,0,0,0,0,-6.1354,-6.1491,-6.1472,-6.1501,-6.165,-6.1771,-6.179,-6.1791,-6.1733,-6.1799,-6.1826,-6.179,-6.2027,-6.1957,-6.1985,-6.2075,-6.2312,-6.2325,-6.2338,-6.2426,-6.2453,-6.2475,0,0,0,0,0,0,-6.1434,-6.1499,-6.1479,-6.1641,-6.1701,-6.176,-6.1844,-6.1819,-6.1896,-6.1885,-6.1881,-6.1897,-6.2041,-6.2071,-6.1992,-6.2242,-6.2161,-6.218,-6.2218,-6.2243,-6.2263,-6.2253,-6.1913,0,0,0,0,0,-6.1471,-6.1565,-6.1616,-6.1754,-6.1786,-6.181,-6.1863,-6.1858,-6.192,-6.1945,-6.1982,-6.2042,-6.213,-6.2188,-6.2272,-6.2439,-6.2452,-6.2514,-6.2534,-6.2551,-6.2568,-6.2657,-6.2685,-6.2387,-6.2387,-6.2387,0,0,-6.1547,-6.1594,-6.1654,-6.1772,-6.1818,-6.1914,-6.1832,-6.1937,-6.2008,-6.196,-6.2094,-6.2124,-6.219,-6.2344,-6.2414,-6.2374,-6.2653,-6.2567,-6.258,-6.2588,-6.2674,-6.2702,-6.2727,-6.2396,-6.2395,-6.2393,0,0,-6.1735,-6.1781,-6.1901,-6.1949,-6.202,-6.2035,-6.2064,-6.2127,-6.2145,-6.228,-6.2245,-6.2329,-6.2481,-6.253,-6.2575,-6.2781,-6.275,-6.2808,-6.2914,-6.3002,-6.3025,-6.3046,-6.3119,-6.3146,-6.2825,-6.2825,-6.2825,0,-6.1821,-6.1967,-6.1965,-6.2074,-6.2127,-6.2088,-6.2209,-6.2255,-6.2349,-6.2386,-6.234,-6.253,-6.2572,-6.2736,-6.2787,-6.2824,-6.2856,-6.2801,-6.3022,-6.3043,-6.3062,-6.3132,-6.316,-6.2831,-6.2831,-6.283,-6.2829,0,-6.2068,-6.2169,-6.2257,-6.2351,-6.2413,-6.2527,-6.2542,-6.2604,-6.2594,-6.2613,-6.275,-6.2799,-6.2892,-6.293,-6.2921,-6.3094,-6.3067,-6.3022,-6.294,-6.3097,-6.3163,-6.319,-6.2841,-6.2839,-6.2837,-6.2835,0,0,-6.2311,-6.2403,-6.2435,-6.2476,-6.2552,-6.2629,-6.2741,-6.2832,-6.2886,-6.2952,-6.3045,-6.3174,-6.3133,-6.3184,-6.3179,-6.3256,-6.3416,-6.3202,-6.3203,-6.324,-6.3608,-6.3641,-6.3672,-6.3395,-6.3401,-6.3405,-6.3602,0,-6.2505,-6.2703,-6.2705,-6.2886,-6.2978,-6.2943,-6.304,-6.3096,-6.3116,-6.3197,-6.3219,-6.3311,-6.325,-6.328,-6.3355,-6.3381,-6.349,-6.3366,-6.3481,-6.3485,-6.3466,-6.3707,-6.3742,-6.3927,-6.3628,-6.3632,-6.3635,0,-6.2759,-6.2834,-6.3025,-6.3086,-6.3125,-6.3212,-6.3296,-6.3374,-6.3436,-6.3445,-6.3502,-6.3486,-6.3598,-6.3512,-6.3666,-6.3582,-6.3628,-6.3648,-6.3655,-6.3666,-6.357,-6.3724,-6.3985,-6.4013,-6.3675,-6.3672,-6.3669,0,-6.2917,-6.3066,-6.3199,-6.3235,-6.331,-6.3372,-6.3406,-6.3463,-6.3518,-6.359,-6.3625,-6.371,-6.3756,-6.3821,-6.3827,-6.3764,-6.3982,-6.3896,-6.3992,-6.3992,-6.404,-6.4037,-6.4312,-6.407,-6.4069,-6.4069,-6.4068,0,-6.3134,-6.3251,-6.3271,-6.3353,-6.3483,-6.3484,-6.3612,-6.364,-6.3691,-6.3777,-6.375,-6.3831,-6.3835,-6.3917,-6.3922,-6.4048,-6.4069,-6.4079,-6.4079,-6.4082,-6.4081,-6.4113,-6.41,-6.4076,-6.4074,-6.4073,-6.4072,0,-6.3333,-6.3351,-6.3493,-6.3553,-6.357,-6.3664,-6.3713,-6.3791,-6.3809,-6.3917,-6.3943,-6.397,-6.4066,-6.4078,-6.419,-6.4193,-6.4345,-6.4331,-6.4325,-6.4323,-6.4417,-6.4408,-6.4723,-6.4764,-6.4495,-6.4497,-6.45,0,-6.347,-6.356,-6.3629,-6.3685,-6.3723,-6.3813,-6.3869,-6.3872,-6.3931,-6.4008,-6.4076,-6.4169,-6.4243,-6.4397,-6.4426,-6.451,-6.4499,-6.4603,-6.4511,-6.4511,-6.45,-6.4495,-6.4504,-6.4621,-6.4624,-6.4626,-6.4628,0,-6.3712,-6.3716,-6.3798,-6.3884,-6.3952,-6.4019,-6.4082,-6.4129,-6.4139,-6.4207,-6.4304,-6.4362,-6.4476,-6.4568,-6.4652,-6.4684,-6.4659,-6.4657,-6.4684,-6.4687,-6.468,-6.4685,-6.4373,-6.465,-6.4648,-6.4646,-6.4645,-6.4644,-6.3884,-6.3962,-6.4023,-6.4115,-6.4163,-6.4223,-6.4298,-6.4326,-6.4408,-6.4501,-6.4497,-6.4605,-6.4663,-6.4773,-6.4812,-6.4895,-6.486,-6.4899,-6.4908,-6.4918,-6.4927,-6.4667,-6.491,-6.4909,-6.4908,-6.4908,-6.4908,0,-6.4125,-6.4162,-6.4247,-6.4336,-6.4408,-6.4378,-6.4446,-6.4508,-6.4604,-6.4661,-6.4735,-6.4846,-6.4935,-6.4972,-6.5058,-6.5118,-6.5108,-6.5141,-6.5136,-6.5144,-6.4953,-6.4922,-6.5147,-6.5147,-6.5147,-6.5147,-6.5147,-6.5147,-6.4258,-6.4389,-6.44,-6.4553,-6.4589,-6.4695,-6.4737,-6.4791,-6.4836,-6.4963,-6.5037,-6.506,-6.5109,-6.5199,-6.5279,-6.5287,-6.532,-6.5358,-6.5361,-6.5182,-6.5158,-6.5135,-6.5105,-6.5365,-6.5365,-6.5545,-6.5546,-6.5547]}]]